When you browse on this site, cookies collect data to enhance your experience and personalize the content and advertising you see.
Visit our Privacy Policy to learn more. By continuing to use the site, you agree to this use of cookies and data.
  • In Schweiz
  • Länderverzeichnis
  • Für 7 Tage
  • Wassertemperatur
  • Wetterkarte
  • Widgets
  • user-avatar
    Anmelden

    Stündliche Wetter Tukupita

    Heute, 5 Juni, Freitag

    Zeit Temperatur Niederschläge Wind Luftdruck Luftfeuchtigkeit
    00:00 +26°C° 0.5 mm 1 m/S 759 mmHg 93%
    01:00 +26°C° 0.5 mm 1 m/S 759 mmHg 95%
    02:00 +26°C° 0.5 mm 1 m/S 758 mmHg 97%
    03:00 +26°C° 0.5 mm 1 m/S 758 mmHg 97%
    04:00 +25°C° 0.5 mm 1 m/S 758 mmHg 98%
    05:00 +25°C° 0.5 mm 1 m/S 758 mmHg 98%
    06:00 +26°C° 0.1 mm 1 m/S 759 mmHg 94%
    07:00 +27°C° 0.1 mm 1 m/S 759 mmHg 90%
    08:00 +28°C° 0.1 mm 1 m/S 760 mmHg 87%
    09:00 +30°C° 0 mm 1 m/S 760 mmHg 74%
    10:00 +34°C° 0 mm 2 m/S 760 mmHg 61%
    11:00 +36°C° 0 mm 2 m/S 760 mmHg 49%
    12:00 +36°C° 0.2 mm 2 m/S 759 mmHg 48%
    13:00 +37°C° 0.2 mm 3 m/S 758 mmHg 48%
    14:00 +37°C° 0.2 mm 3 m/S 757 mmHg 48%
    15:00 +35°C° 0.3 mm 3 m/S 757 mmHg 54%
    16:00 +34°C° 0.3 mm 3 m/S 757 mmHg 59%
    17:00 +33°C° 0.3 mm 4 m/S 757 mmHg 65%
    18:00 +30°C° 0 mm 3 m/S 758 mmHg 70%
    19:00 +29°C° 0 mm 3 m/S 758 mmHg 75%
    20:00 +28°C° 0 mm 2 m/S 759 mmHg 80%
    21:00 +28°C° 0 mm 2 m/S 759 mmHg 82%
    22:00 +27°C° 0 mm 2 m/S 759 mmHg 85%
    23:00 +27°C° 0 mm 1 m/S 760 mmHg 87%

    Morgen, 6 Juni, Samstag

    Zeit Temperatur Niederschläge Wind Luftdruck Luftfeuchtigkeit
    00:00 +26°C° 0 mm 1 m/S 759 mmHg 89%
    01:00 +26°C° 0 mm 1 m/S 759 mmHg 91%
    02:00 +26°C° 0 mm 1 m/S 758 mmHg 92%
    03:00 +26°C° 0 mm 1 m/S 758 mmHg 94%
    04:00 +25°C° 0 mm 1 m/S 758 mmHg 96%
    05:00 +25°C° 0 mm 1 m/S 758 mmHg 97%
    06:00 +26°C° 0 mm 1 m/S 759 mmHg 90%
    07:00 +28°C° 0 mm 2 m/S 759 mmHg 83%
    08:00 +29°C° 0 mm 2 m/S 759 mmHg 77%
    09:00 +31°C° 0 mm 2 m/S 760 mmHg 68%
    10:00 +34°C° 0 mm 2 m/S 760 mmHg 59%
    11:00 +36°C° 0 mm 3 m/S 760 mmHg 50%
    12:00 +37°C° 0 mm 3 m/S 759 mmHg 46%
    13:00 +38°C° 0 mm 3 m/S 758 mmHg 43%
    14:00 +38°C° 0 mm 3 m/S 757 mmHg 40%
    15:00 +38°C° 0 mm 3 m/S 757 mmHg 43%
    16:00 +37°C° 0 mm 3 m/S 757 mmHg 46%
    17:00 +36°C° 0 mm 3 m/S 757 mmHg 49%
    18:00 +34°C° 0 mm 3 m/S 757 mmHg 57%
    19:00 +31°C° 0 mm 3 m/S 758 mmHg 65%
    20:00 +29°C° 0 mm 3 m/S 758 mmHg 73%
    21:00 +29°C° 0 mm 3 m/S 759 mmHg 77%
    22:00 +28°C° 0 mm 2 m/S 759 mmHg 81%
    23:00 +27°C° 0 mm 2 m/S 760 mmHg 85%

    übermorgen, 7 Juni, Sonntag

    Zeit Temperatur Niederschläge Wind Luftdruck Luftfeuchtigkeit
    00:00 +27°C° 0 mm 1 m/S 759 mmHg 88%
    01:00 +26°C° 0 mm 1 m/S 759 mmHg 91%
    02:00 +26°C° 0 mm 1 m/S 758 mmHg 94%
    03:00 +26°C° 0 mm 1 m/S 759 mmHg 95%
    04:00 +25°C° 0 mm 1 m/S 759 mmHg 97%
    05:00 +25°C° 0 mm 1 m/S 759 mmHg 98%
    06:00 +26°C° 0 mm 1 m/S 759 mmHg 91%
    07:00 +28°C° 0 mm 1 m/S 760 mmHg 85%
    08:00 +29°C° 0 mm 1 m/S 760 mmHg 78%
    09:00 +31°C° 0.1 mm 1 m/S 760 mmHg 70%
    10:00 +34°C° 0.1 mm 2 m/S 760 mmHg 62%
    11:00 +35°C° 0.1 mm 2 m/S 760 mmHg 54%
    12:00 +36°C° 0.8 mm 2 m/S 759 mmHg 53%
    13:00 +36°C° 0.8 mm 2 m/S 758 mmHg 52%
    14:00 +36°C° 0.8 mm 3 m/S 758 mmHg 51%
    15:00 +36°C° 0 mm 3 m/S 757 mmHg 53%
    16:00 +35°C° 0 mm 3 m/S 757 mmHg 54%
    17:00 +35°C° 0 mm 3 m/S 757 mmHg 55%
    18:00 +33°C° 0 mm 3 m/S 757 mmHg 63%
    19:00 +30°C° 0 mm 2 m/S 758 mmHg 71%
    20:00 +28°C° 0 mm 2 m/S 759 mmHg 78%
    21:00 +28°C° 0 mm 2 m/S 759 mmHg 82%
    22:00 +27°C° 0 mm 1 m/S 759 mmHg 85%
    23:00 +27°C° 0 mm 1 m/S 760 mmHg 88%

    8 Juni, Montag

    Zeit Temperatur Niederschläge Wind Luftdruck Luftfeuchtigkeit
    00:00 +26°C° 0 mm 1 m/S 759 mmHg 90%
    01:00 +26°C° 0 mm 1 m/S 759 mmHg 92%
    02:00 +26°C° 0 mm 1 m/S 758 mmHg 94%
    03:00 +26°C° 0 mm 1 m/S 758 mmHg 95%
    04:00 +26°C° 0 mm 1 m/S 759 mmHg 96%
    05:00 +25°C° 0 mm 1 m/S 759 mmHg 97%
    06:00 +27°C° 0.2 mm 1 m/S 759 mmHg 92%
    07:00 +28°C° 0.2 mm 1 m/S 759 mmHg 87%
    08:00 +29°C° 0.2 mm 2 m/S 760 mmHg 83%
    09:00 +30°C° 0.4 mm 2 m/S 760 mmHg 74%
    10:00 +32°C° 0.4 mm 2 m/S 760 mmHg 66%
    11:00 +34°C° 0.4 mm 2 m/S 760 mmHg 57%
    12:00 +35°C° 0 mm 2 m/S 759 mmHg 54%
    13:00 +36°C° 0 mm 2 m/S 758 mmHg 50%
    14:00 +37°C° 0 mm 2 m/S 757 mmHg 47%
    15:00 +36°C° 0.1 mm 2 m/S 757 mmHg 52%
    16:00 +35°C° 0.1 mm 3 m/S 757 mmHg 57%
    17:00 +34°C° 0.1 mm 3 m/S 757 mmHg 62%
    18:00 +31°C° 0.1 mm 2 m/S 757 mmHg 69%
    19:00 +29°C° 0.1 mm 2 m/S 758 mmHg 76%
    20:00 +28°C° 0.1 mm 2 m/S 758 mmHg 84%
    21:00 +27°C° 0 mm 2 m/S 758 mmHg 87%
    22:00 +27°C° 0 mm 1 m/S 759 mmHg 90%
    23:00 +26°C° 0 mm 1 m/S 759 mmHg 93%

    9 Juni, Dienstag

    Zeit Temperatur Niederschläge Wind Luftdruck Luftfeuchtigkeit
    00:00 +26°C° 0 mm 1 m/S 759 mmHg 94%
    01:00 +26°C° 0 mm 1 m/S 758 mmHg 95%
    02:00 +25°C° 0 mm 1 m/S 758 mmHg 96%
    03:00 +25°C° 0 mm 1 m/S 758 mmHg 97%
    04:00 +23°C° 0 mm 0 m/S 758 mmHg 98%
    05:00 +23°C° 0 mm 0 m/S 758 mmHg 98%
    06:00 +24°C° 0.1 mm 0 m/S 758 mmHg 93%
    07:00 +25°C° 0.1 mm 0 m/S 758 mmHg 88%
    08:00 +28°C° 0.1 mm 1 m/S 759 mmHg 84%
    09:00 +30°C° 0.5 mm 1 m/S 759 mmHg 77%
    10:00 +31°C° 0.5 mm 1 m/S 759 mmHg 70%
    11:00 +34°C° 0.5 mm 2 m/S 759 mmHg 64%
    12:00 +34°C° 0.9 mm 2 m/S 758 mmHg 63%
    13:00 +34°C° 0.9 mm 2 m/S 757 mmHg 62%
    14:00 +34°C° 0.9 mm 2 m/S 757 mmHg 61%
    15:00 +32°C° 0.5 mm 2 m/S 757 mmHg 64%
    16:00 +33°C° 0.5 mm 3 m/S 756 mmHg 67%
    17:00 +31°C° 0.5 mm 3 m/S 756 mmHg 70%
    18:00 +29°C° 0.2 mm 2 m/S 757 mmHg 78%
    19:00 +28°C° 0.2 mm 2 m/S 757 mmHg 85%
    20:00 +26°C° 0.2 mm 1 m/S 758 mmHg 92%
    21:00 +26°C° 0.5 mm 1 m/S 758 mmHg 93%
    22:00 +26°C° 0.5 mm 1 m/S 758 mmHg 94%
    23:00 +26°C° 0.5 mm 1 m/S 758 mmHg 96%

    10 Juni, Mittwoch

    Zeit Temperatur Niederschläge Wind Luftdruck Luftfeuchtigkeit
    00:00 +26°C° 0.1 mm 1 m/S 758 mmHg 95%
    01:00 +25°C° 0.1 mm 1 m/S 757 mmHg 95%
    02:00 +25°C° 0.1 mm 1 m/S 757 mmHg 95%
    03:00 +25°C° 0 mm 1 m/S 757 mmHg 96%
    04:00 +25°C° 0 mm 1 m/S 757 mmHg 96%
    05:00 +25°C° 0 mm 1 m/S 757 mmHg 97%
    06:00 +26°C° 0 mm 1 m/S 757 mmHg 95%
    07:00 +26°C° 0 mm 1 m/S 758 mmHg 93%
    08:00 +27°C° 0 mm 1 m/S 758 mmHg 91%
    09:00 +29°C° 0.4 mm 1 m/S 758 mmHg 83%
    10:00 +30°C° 0.4 mm 2 m/S 758 mmHg 75%
    11:00 +32°C° 0.4 mm 2 m/S 758 mmHg 67%
    12:00 +32°C° 1.2 mm 2 m/S 758 mmHg 69%
    13:00 +32°C° 1.2 mm 2 m/S 757 mmHg 70%
    14:00 +33°C° 1.2 mm 3 m/S 756 mmHg 72%
    15:00 +29°C° 2.6 mm 2 m/S 756 mmHg 80%
    16:00 +27°C° 2.6 mm 2 m/S 756 mmHg 88%
    17:00 +25°C° 2.6 mm 2 m/S 756 mmHg 96%
    18:00 +25°C° 0.8 mm 1 m/S 757 mmHg 97%
    19:00 +25°C° 0.8 mm 1 m/S 758 mmHg 97%
    20:00 +23°C° 0.8 mm 0 m/S 758 mmHg 98%
    21:00 +23°C° 0 mm 0 m/S 758 mmHg 98%
    22:00 +23°C° 0 mm 0 m/S 759 mmHg 97%
    23:00 +23°C° 0 mm 0 m/S 759 mmHg 97%
    Mehr zeigen